[[{"header":{"parameterUnit":"m.s-1","parameterCategory":1,"la1":30.2991,"la2":30.254,"lo1":-89.0895,"lo2":-89.0444,"dy":0.0017,"dx":0.0017,"nx":28,"ny":28,"refTime":"2023-11-22T09:00:00:Z","depth":0,"parameterNumber":2,"parameterNumberName":"U-component_of_WINDS"},"data":[0,0,0,0,0,0,0,0,0,0,0,0,0,0,0,0,0,0,0,0,0,0,0,0,0,0,0,0,0,0,0,0,0,0,0,0,0,0,0,0,0,0,0,0,0,0,0,0,0,0,0,0,0,0,0,0,0,0,3.0512,3.0513,0,3.055,3.055,3.0551,3.0513,3.0512,3.051,3.0509,3.0545,3.0548,3.055,0,0,0,0,0,0,0,0,0,0,0,0,0,3.0406,3.0408,3.0512,3.0513,3.0513,3.055,3.055,3.0551,3.0513,3.0512,3.051,3.0508,3.0545,3.0547,3.055,0,0,0,0,0,0,0,0,0,0,0,0,0,3.0449,3.0409,3.0512,3.0499,3.0498,3.055,3.055,3.0551,3.0514,3.0511,3.0509,3.0507,3.0544,3.0547,3.0551,3.0616,0,0,3.0561,3.0563,0,0,0,0,0,0,0,0,3.0446,3.0453,3.05,3.05,3.0499,3.0525,3.0526,3.0573,3.0514,3.0508,3.0509,3.0506,3.054,3.0544,3.0556,3.0618,3.062,3.0562,3.0564,3.0565,3.0566,0,0,0,0,0,0,0,3.0443,3.0451,3.0527,3.0501,3.05,3.0491,3.0494,3.0535,3.0536,3.0508,3.0505,3.0511,3.0539,3.0552,3.0556,3.062,3.0561,3.0565,3.0567,3.0568,3.0739,3.0741,0,0,0,0,0,0,3.0442,3.0449,3.0526,3.0528,3.0467,3.0494,3.0498,3.0519,3.0535,3.0536,3.0512,3.0509,3.0547,3.0552,3.0557,3.0636,3.0565,3.0569,3.0571,3.0737,3.074,3.0742,0,0,0,0,0,0,3.044,3.0449,3.0524,3.0488,3.0496,3.0498,3.0521,3.052,3.0533,3.0539,3.0538,3.0526,3.0546,3.0552,3.0602,3.0636,3.057,3.0573,3.0734,3.0738,3.0741,3.0793,0,0,0,0,0,0,3.0437,3.0449,3.0474,3.0489,3.0499,3.0569,3.0524,3.0523,3.054,3.0535,3.0551,3.0551,3.0545,3.0597,3.0606,3.064,3.0576,3.0731,3.0736,3.074,3.0788,3.0798,3.0806,0,0,0,0,0,3.0434,3.0487,3.0476,3.0485,3.053,3.0571,3.0577,3.0569,3.0543,3.0568,3.0571,3.0551,3.0632,3.0603,3.0612,3.0648,3.0729,3.0734,3.0739,3.0784,3.0796,3.0806,0,0,0,0,0,0,3.0475,3.0488,3.0476,3.0536,3.0553,3.0565,3.0596,3.0581,3.0605,3.06,3.0588,3.0592,3.0645,3.0651,3.0619,3.0713,3.0676,3.0683,3.0706,3.0718,3.0726,3.0723,3.0579,0,0,0,0,0,3.0492,3.0524,3.0534,3.0585,3.0595,3.0594,3.0612,3.0604,3.0621,3.0627,3.0634,3.0651,3.068,3.0699,3.0726,3.0789,3.0792,3.0818,3.0827,3.0835,3.0841,3.0875,3.0887,3.076,3.076,3.076,0,0,3.0525,3.0537,3.0558,3.0594,3.0606,3.064,3.06,3.0637,3.0662,3.0633,3.068,3.0686,3.0704,3.0761,3.0786,3.0768,3.0877,3.0842,3.0848,3.085,3.0882,3.0894,3.0904,3.0764,3.0763,3.0763,0,0,3.0604,3.0616,3.066,3.0674,3.0693,3.0693,3.0704,3.0718,3.0721,3.0769,3.0748,3.0777,3.0827,3.0841,3.0854,3.0939,3.0921,3.0948,3.0995,3.1028,3.1038,3.1047,3.1077,3.1088,3.0955,3.0955,3.0955,0,3.0643,3.0693,3.0685,3.0724,3.074,3.0717,3.0761,3.0775,3.0802,3.0813,3.0793,3.0856,3.0866,3.0926,3.0947,3.0958,3.097,3.0946,3.1037,3.1046,3.1054,3.1083,3.1094,3.0958,3.0958,3.0958,3.0957,0,3.074,3.0776,3.0809,3.0837,3.0857,3.0899,3.0896,3.0918,3.0909,3.0911,3.096,3.0972,3.1001,3.1014,3.1005,3.1073,3.1061,3.1039,3.1002,3.107,3.1096,3.1107,3.0963,3.0962,3.0961,3.096,0,0,3.0845,3.0869,3.0881,3.0893,3.0914,3.094,3.0981,3.101,3.1029,3.1049,3.1082,3.1126,3.1106,3.1121,3.1114,3.1143,3.121,3.1118,3.1118,3.1134,3.1284,3.13,3.1313,3.1198,3.12,3.1202,3.1283,0,3.0924,3.0995,3.0989,3.1056,3.1088,3.1067,3.1102,3.1118,3.1121,3.1149,3.1152,3.1183,3.1155,3.1164,3.1192,3.1196,3.1239,3.119,3.1228,3.123,3.1224,3.1327,3.1343,3.1419,3.1293,3.1295,3.1296,0,3.1025,3.1049,3.112,3.1135,3.1149,3.1181,3.1207,3.1234,3.1252,3.1252,3.127,3.1258,3.1298,3.1261,3.1317,3.1283,3.1299,3.1303,3.1306,3.1308,3.1266,3.1331,3.1443,3.1454,3.1312,3.1311,3.131,0,3.1093,3.1144,3.1193,3.1204,3.1224,3.1247,3.1256,3.1272,3.129,3.1313,3.1325,3.1352,3.1367,3.1389,3.1384,3.1357,3.1441,3.1403,3.1441,3.1442,3.1459,3.1458,3.1574,3.1471,3.147,3.147,3.147,0,3.1181,3.1225,3.1224,3.1254,3.1302,3.1295,3.1343,3.1349,3.1364,3.1394,3.1378,3.1406,3.1399,3.1428,3.1425,3.1471,3.1478,3.1479,3.1477,3.148,3.148,3.1489,3.1484,3.1473,3.1473,3.1472,3.1471,0,3.1266,3.1267,3.1318,3.1334,3.1338,3.1373,3.1386,3.1414,3.1416,3.1455,3.1464,3.1467,3.15,3.1498,3.1535,3.1532,3.1589,3.1582,3.1584,3.1582,3.162,3.1616,3.1745,3.1762,3.1649,3.165,3.1651,0,3.1322,3.1355,3.1374,3.1394,3.1405,3.1436,3.1455,3.145,3.147,3.1493,3.1518,3.155,3.1575,3.1628,3.1633,3.1662,3.1654,3.1698,3.1658,3.166,3.1654,3.1652,3.1655,3.1705,3.1706,3.1707,3.1708,0,3.142,3.1419,3.1447,3.1476,3.1499,3.1521,3.1541,3.1558,3.1555,3.1578,3.1612,3.1632,3.167,3.1701,3.1728,3.1737,3.1722,3.1721,3.1731,3.1734,3.1733,3.1733,3.1604,3.1718,3.1717,3.1716,3.1716,3.1715,3.1491,3.152,3.1538,3.157,3.1585,3.1605,3.1632,3.1638,3.1666,3.1697,3.1693,3.173,3.1748,3.1783,3.1794,3.1824,3.1808,3.1823,3.1827,3.183,3.1834,3.1729,3.1829,3.1828,3.1828,3.1828,3.1828,0,3.1589,3.16,3.1629,3.1658,3.1684,3.1669,3.169,3.1712,3.1746,3.1764,3.1789,3.1828,3.1859,3.1867,3.1896,3.1918,3.1912,3.1926,3.1924,3.1926,3.1847,3.1835,3.193,3.193,3.193,3.193,3.193,3.193,3.1642,3.169,3.1692,3.1747,3.1757,3.1795,3.1808,3.1826,3.184,3.1885,3.191,3.1916,3.193,3.196,3.1988,3.1989,3.2,3.2017,3.2016,3.1942,3.1931,3.1922,3.191,3.202,3.202,3.2092,3.2093,3.2094]},{"header":{"parameterUnit":"m.s-1","parameterCategory":1,"la1":30.2991,"la2":30.254,"lo1":-89.0895,"lo2":-89.0444,"dy":0.0017,"dx":0.0017,"nx":28,"ny":28,"refTime":"2023-11-22T09:00:00:Z","depth":0,"parameterNumber":3,"parameterNumberName":"V-component_of_WINDS"},"data":[0,0,0,0,0,0,0,0,0,0,0,0,0,0,0,0,0,0,0,0,0,0,0,0,0,0,0,0,0,0,0,0,0,0,0,0,0,0,0,0,0,0,0,0,0,0,0,0,0,0,0,0,0,0,0,0,0,0,-5.4752,-5.4754,0,-5.4934,-5.4936,-5.4938,-5.4915,-5.4912,-5.4909,-5.4907,-5.5092,-5.51,-5.5107,0,0,0,0,0,0,0,0,0,0,0,0,0,-5.4387,-5.4394,-5.4752,-5.4754,-5.4757,-5.4933,-5.4936,-5.4938,-5.4916,-5.4912,-5.4909,-5.4905,-5.509,-5.5099,-5.5108,0,0,0,0,0,0,0,0,0,0,0,0,0,-5.4555,-5.4396,-5.4752,-5.4767,-5.477,-5.4933,-5.4936,-5.4939,-5.4917,-5.4912,-5.4908,-5.4904,-5.5087,-5.5098,-5.5109,-5.5269,0,0,-5.5145,-5.515,0,0,0,0,0,0,0,0,-5.4545,-5.4568,-5.4762,-5.4766,-5.477,-5.4897,-5.4875,-5.5049,-5.4918,-5.4861,-5.4907,-5.4902,-5.5031,-5.5047,-5.5091,-5.5277,-5.5285,-5.5146,-5.5153,-5.5158,-5.5161,0,0,0,0,0,0,0,-5.4534,-5.456,-5.4824,-5.4765,-5.477,-5.4765,-5.4784,-5.4908,-5.4968,-5.4866,-5.4864,-5.4886,-5.5032,-5.508,-5.5095,-5.5288,-5.5145,-5.5156,-5.5163,-5.5167,-5.5616,-5.5621,0,0,0,0,0,0,-5.4518,-5.4551,-5.4818,-5.4829,-5.4644,-5.4775,-5.4796,-5.4861,-5.4967,-5.4979,-5.489,-5.4884,-5.5062,-5.5081,-5.5101,-5.5296,-5.5158,-5.5168,-5.5175,-5.5611,-5.5617,-5.5623,0,0,0,0,0,0,-5.451,-5.4542,-5.4811,-5.469,-5.4724,-5.4786,-5.4859,-5.4867,-5.4914,-5.4985,-5.4996,-5.4927,-5.5059,-5.5085,-5.5228,-5.5302,-5.5174,-5.5184,-5.5605,-5.5613,-5.562,-5.5685,0,0,0,0,0,0,-5.45,-5.454,-5.4601,-5.4691,-5.473,-5.4934,-5.4863,-5.4873,-5.4934,-5.4929,-5.5023,-5.5034,-5.5058,-5.5211,-5.5239,-5.5315,-5.5193,-5.5599,-5.5609,-5.5618,-5.5677,-5.5694,-5.5709,0,0,0,0,0,-5.4487,-5.4612,-5.4604,-5.4636,-5.4808,-5.4938,-5.4961,-5.4985,-5.494,-5.5002,-5.5048,-5.5031,-5.5289,-5.5225,-5.5257,-5.5338,-5.5594,-5.5606,-5.5617,-5.567,-5.5691,-5.5709,0,0,0,0,0,0,-5.4528,-5.4624,-5.4616,-5.4774,-5.4848,-5.4934,-5.5013,-5.5006,-5.5095,-5.5087,-5.5113,-5.5135,-5.5279,-5.5323,-5.525,-5.5499,-5.5436,-5.5454,-5.5465,-5.5486,-5.5501,-5.5488,-5.5203,0,0,0,0,0,-5.4555,-5.4653,-5.4732,-5.4863,-5.4901,-5.4951,-5.5009,-5.5021,-5.5099,-5.5131,-5.5187,-5.5263,-5.5362,-5.5426,-5.552,-5.5683,-5.5704,-5.5754,-5.577,-5.5783,-5.5799,-5.589,-5.5913,-5.566,-5.566,-5.5659,0,0,-5.4613,-5.4677,-5.4737,-5.4873,-5.4932,-5.5033,-5.4977,-5.5087,-5.5162,-5.5147,-5.5286,-5.533,-5.5417,-5.5571,-5.5641,-5.5612,-5.5874,-5.5798,-5.5807,-5.5816,-5.5904,-5.5928,-5.5949,-5.5667,-5.5666,-5.5665,0,0,-5.4769,-5.4828,-5.4944,-5.5005,-5.5095,-5.5127,-5.5155,-5.5243,-5.5272,-5.5411,-5.5402,-5.5493,-5.5661,-5.5724,-5.5778,-5.5959,-5.5948,-5.5989,-5.6074,-5.6161,-5.6181,-5.6199,-5.6265,-5.6288,-5.6004,-5.6005,-5.6005,0,-5.4829,-5.4982,-5.5005,-5.5116,-5.5176,-5.5167,-5.5286,-5.5343,-5.546,-5.5502,-5.5467,-5.5679,-5.5737,-5.5906,-5.595,-5.5994,-5.6027,-5.5979,-5.6177,-5.6195,-5.6212,-5.6275,-5.6299,-5.6009,-5.6009,-5.6008,-5.6008,0,-5.5052,-5.5157,-5.524,-5.5354,-5.5423,-5.5537,-5.5578,-5.5646,-5.5652,-5.5689,-5.5831,-5.59,-5.6009,-5.605,-5.6057,-5.622,-5.6199,-5.617,-5.6108,-5.624,-5.63,-5.6324,-5.6016,-5.6014,-5.6013,-5.6011,0,0,-5.5239,-5.5364,-5.5394,-5.5446,-5.5545,-5.5628,-5.5741,-5.5848,-5.5906,-5.5987,-5.6084,-5.6227,-5.6201,-5.6262,-5.6276,-5.6353,-5.6494,-5.6315,-5.6318,-5.6347,-5.6679,-5.6701,-5.6729,-5.6487,-5.6491,-5.6495,-5.6672,0,-5.5406,-5.5608,-5.5633,-5.5812,-5.5911,-5.5904,-5.6003,-5.6075,-5.6112,-5.6201,-5.6242,-5.6344,-5.6301,-5.6338,-5.6414,-5.6461,-5.6561,-5.6448,-5.6578,-5.6582,-5.6557,-5.676,-5.6783,-5.6948,-5.6696,-5.67,-5.6703,0,-5.5629,-5.5716,-5.5905,-5.5992,-5.6034,-5.6123,-5.6223,-5.6308,-5.639,-5.6411,-5.648,-5.6485,-5.6603,-5.6535,-5.6699,-5.6622,-5.6676,-5.6707,-5.6714,-5.6728,-5.6651,-5.678,-5.7,-5.7025,-5.6739,-5.6736,-5.6734,0,-5.5748,-5.5913,-5.6048,-5.6092,-5.6196,-5.6259,-5.6305,-5.6382,-5.6445,-5.6532,-5.6574,-5.6673,-5.6728,-5.6806,-5.6838,-5.6785,-5.7,-5.6935,-5.7022,-5.7022,-5.7068,-5.7065,-5.7302,-5.7102,-5.7102,-5.7101,-5.7101,0,-5.5933,-5.6049,-5.6103,-5.6186,-5.6316,-5.6343,-5.6472,-5.6516,-5.6585,-5.6676,-5.6676,-5.6762,-5.6798,-5.6891,-5.6916,-5.7049,-5.7073,-5.7094,-5.71,-5.7095,-5.7093,-5.7132,-5.7122,-5.7108,-5.7106,-5.7105,-5.7104,0,-5.6088,-5.6129,-5.6276,-5.6362,-5.6386,-5.6479,-5.6553,-5.6634,-5.667,-5.6786,-5.6815,-5.6872,-5.6981,-5.702,-5.7152,-5.7169,-5.7323,-5.7318,-5.7295,-5.7297,-5.7383,-5.7375,-5.7653,-5.7692,-5.7466,-5.7468,-5.747,0,-5.6204,-5.6293,-5.639,-5.6451,-5.65,-5.6599,-5.6663,-5.6693,-5.676,-5.686,-5.6929,-5.7037,-5.7125,-5.7299,-5.7352,-5.7453,-5.7452,-5.7543,-5.7467,-5.746,-5.7455,-5.7449,-5.7459,-5.7557,-5.7559,-5.7561,-5.7563,0,-5.6405,-5.6421,-5.6513,-5.6614,-5.669,-5.677,-5.6848,-5.6898,-5.694,-5.7016,-5.7127,-5.7195,-5.733,-5.7438,-5.7541,-5.7589,-5.7584,-5.7586,-5.7612,-5.7608,-5.7592,-5.7603,-5.7335,-5.758,-5.7578,-5.7577,-5.7576,-5.7575,-5.6546,-5.6625,-5.6705,-5.6809,-5.687,-5.6943,-5.7024,-5.707,-5.7163,-5.7275,-5.7287,-5.7407,-5.7487,-5.7626,-5.7679,-5.7773,-5.7748,-5.7786,-5.7795,-5.7804,-5.7811,-5.7576,-5.7792,-5.7792,-5.7791,-5.7791,-5.7791,0,-5.6748,-5.6799,-5.6894,-5.7003,-5.7084,-5.7071,-5.7157,-5.7226,-5.7332,-5.7407,-5.7494,-5.7622,-5.7726,-5.7788,-5.7893,-5.7957,-5.7957,-5.7983,-5.7979,-5.7991,-5.7827,-5.7794,-5.7981,-5.7981,-5.7981,-5.7981,-5.7981,-5.7981,-5.6863,-5.6997,-5.7023,-5.7188,-5.7238,-5.7356,-5.7406,-5.7474,-5.7534,-5.7677,-5.7764,-5.7803,-5.7873,-5.7983,-5.8079,-5.8094,-5.8134,-5.8163,-5.8176,-5.8022,-5.8002,-5.7983,-5.7953,-5.8171,-5.8171,-5.8333,-5.8334,-5.8335]}]]